This is the latest recevied weather packets stored in our database for station/object K2HF. If no packets are shown the sender has not sent any weather packets the latest 1 day(s).
| Time | Temp. | Humidity | Pressure | Rain* | Wind** | Luminosity | Snow |
|---|---|---|---|---|---|---|---|
| 1778078585 | 18.33° C | 26% | 1009.8 hPa | 0 mm | - | - | - |
| 1778078350 | 18.33° C | 24% | 1009.7 hPa | 0 mm | - | - | - |
| 1778077390 | 17.78° C | 1% | 1010.1 hPa | 0 mm | - | - | - |
| 1778077330 | 17.78° C | 1% | 1010.1 hPa | 0 mm | - | - | - |
| 1778077271 | 17.78° C | 1% | 1010.1 hPa | 0 mm | - | - | - |
| 1778077211 | 17.78° C | 1% | 1010.1 hPa | 0 mm | - | - | - |
| 1778077151 | 17.78° C | 3% | 1010.1 hPa | 0 mm | - | - | - |
| 1778077091 | 17.78° C | 3% | 1010.3 hPa | 0 mm | - | - | - |
| 1778077030 | 17.78° C | 100% | 1010.3 hPa | 0 mm | - | - | - |
| 1778076070 | 17.22° C | 100% | 1010.3 hPa | 0 mm | - | - | - |
| 1778076010 | 17.22° C | 100% | 1010.3 hPa | 0 mm | - | - | - |
| 1778075950 | 17.22° C | 100% | 1010.3 hPa | 0 mm | - | - | - |
| 1778075770 | 17.22° C | 100% | 1010.3 hPa | 0 mm | - | - | - |
| 1778075710 | 17.22° C | 100% | 1010.3 hPa | 0 mm | - | - | - |
| 1778075650 | 17.22° C | 100% | 1010.1 hPa | 0 mm | - | - | - |
| 1778075590 | 17.22° C | 1% | 1010 hPa | 0 mm | - | - | - |
| 1778075531 | 17.22° C | 3% | 1009.9 hPa | 0 mm | - | - | - |
| 1778075230 | 17.22° C | 4% | 1009.8 hPa | 0 mm | - | - | - |
| 1778074990 | 17.22° C | 3% | 1009.8 hPa | 0 mm | - | - | - |
| 1778074931 | 17.22° C | 3% | 1010 hPa | 0 mm | - | - | - |
| 1778074270 | 17.78° C | 4% | 1009.9 hPa | 0 mm | - | - | - |
| 1778074091 | 17.22° C | 6% | 1010 hPa | 0 mm | - | - | - |
| 1778074030 | 17.22° C | 8% | 1009.9 hPa | 0 mm | - | - | - |
| 1778073497 | 17.78° C | 12% | 1009.8 hPa | 0 mm | - | - | - |
| 1778073481 | 17.78° C | 10% | 1009.8 hPa | 0 mm | - | - | - |
* Rain latest hour (hover to see other rain measurements)
** Current wind speed in m/s (hover to see current wind gust speed)